sat.trackr.live / text

‹ back to catalog

STARLINK-36518

NORAD 67453 · 2026-008J

PAYLOAD ACTIVE UNKNOWN

§ Identity

Operator
Country
US
Launch date
2026-01-14
Launch site
AFETR
Launch vehicle
Mass (kg)
RCS (m²)

Purposes: comms

External: N2YO · Heavens-Above · Gunter

§ Orbital elements

Epoch: 2026-05-25T00:24:22.756320Z

Period
94.27 min
Inclination
43.0028°
Eccentricity
0.0002262
Mean motion
15.27606599 rev/d
Perigee alt
481.4 km
Apogee alt
484.5 km
Semi-major
6,861.1 km
B*
5.8802e-4
RAAN
134.3148°
Arg perigee
266.2441°
Mean anomaly
93.8152°
Rev number
2,124

§ Raw data

STARLINK-365181 67453U 26008J   26145.01693005  .00015967  00000+0  58802-3 0  99962 67453  43.0028 134.3148 0002262 266.2441  93.8152 15.27606599 21242

JSON: /api/v1/satellites/67453 · /tle

For live sub-satellite position, see the globe view (requires WebGL).

§ Visibility from observer

Set your observer location to see the next 7 days of passes ≥ 10°. The values pass through the URL so the page stays shareable.

No JS? Fill the form by hand. The geolocation button needs JavaScript.